TDRS 8

Last updated on Wed Nov 05 2025 00:02:39 GMT+0000 (Coordinated Universal Time)

1 26388U 00034A 25307.92806186 -.00000182 00000+0 00000+0 0 9991 2 26388 12.3272 33.1884 0002891 211.8552 217.2729 1.00268960 92921
UTC large
Height (km)
Speed (km/s)
/
Latitude / Longitude
Inclination (degrees)
Orbital Period (minutes)
Azimuth
Elevation
Range (km)
Doppler Factor

Next 0 passes for location: London (51.5072 / 0.1276)

Sorry there are no passes over London.